EW2255 Weather Reports


Display with metric or nautical units.
time (UTC)temp
F
wind
direction
speed
MPH
gust
MPH
rain 1hr
in
rain 24hr
in
rain mn
in
humidity
%
barometer
mb
20170325132813 33 81 3.0 5.0 0.00 0.01 0.00 89 1026.8
20170325132308 32 73 3.0 8.0 0.00 0.01 0.00 89 1026.8
20170325131803 33 90 4.0 8.0 0.00 0.01 0.00 89 1026.8
20170325131302 32 71 4.0 8.0 0.00 0.01 0.00 89 1026.7
20170325130758 32 88 1.0 10.0 0.00 0.01 0.00 89 1026.5
20170325130314 32 61 4.0 10.0 0.00 0.01 0.00 88 1026.4
20170325125809 32 82 3.0 8.0 0.00 0.01 0.00 88 1026.4
20170325125305 32 77 4.0 8.0 0.00 0.01 0.00 88 1026.4
20170325124800 32 60 4.0 8.0 0.00 0.01 0.00 88 1026.2
20170325124256 32 65 3.0 9.0 0.00 0.01 0.00 88 1026.4
20170325123811 32 94 5.0 14.0 0.00 0.01 0.00 88 1026.2
20170325123311 32 96 7.0 14.0 0.00 0.01 0.00 88 1026.2
20170325122805 32 90 4.0 10.0 0.00 0.01 0.00 88 1026.2
20170325122300 32 90 5.0 10.0 0.00 0.01 0.00 88 1026.2
20170325121756 32 63 4.0 8.0 0.00 0.01 0.00 88 1026.3
20170325121312 32 92 3.0 7.0 0.00 0.01 0.00 88 1026.4
20170325120808 32 66 3.0 8.0 0.00 0.01 0.00 88 1026.2
20170325115807 32 55 1.0 6.0 0.00 0.01 0.00 88 1026.2
20170325115302 32 57 4.0 8.0 0.00 0.01 0.00 88 1026.2
20170325114758 32 94 1.0 7.0 0.00 0.01 0.00 88 1026.1
20170325113810 32 58 2.0 6.0 0.00 0.01 0.00 87 1025.8
20170325113306 32 79 1.0 7.0 0.00 0.01 0.00 88 1025.8
20170325112800 32 79 2.0 7.0 0.00 0.01 0.00 87 1025.9
20170325112259 32 22 3.0 7.0 0.00 0.01 0.00 87 1026.0
20170325111311 32 45 2.0 7.0 0.00 0.01 0.00 87 1026.1
20170325110806 32 60 3.0 5.0 0.00 0.01 0.00 87 1026.0
20170325110301 32 80 1.0 8.0 0.00 0.01 0.00 87 1026.1
20170325105815 32 36 2.0 7.0 0.00 0.01 0.00 87 1025.8
20170325104756 32 95 2.0 8.0 0.00 0.01 0.00 87 1025.8
20170325104312 32 52 5.0 8.0 0.00 0.01 0.00 87 1025.7
20170325103807 32 29 2.0 6.0 0.00 0.01 0.00 87 1025.5
20170325103304 32 95 2.0 7.0 0.00 0.01 0.00 87 1025.6
20170325102757 33 93 4.0 7.0 0.00 0.01 0.00 87 1025.5
20170325102312 33 66 2.0 5.0 0.00 0.01 0.00 87 1025.4
20170325101808 33 51 2.0 10.0 0.00 0.01 0.00 88 1025.5
20170325101307 33 83 5.0 10.0 0.00 0.01 0.00 88 1025.3
20170325100802 33 81 2.0 9.0 0.00 0.01 0.00 88 1025.1
20170325100257 33 88 2.0 9.0 0.00 0.01 0.00 88 1025.0
20170325095811 33 83 5.0 9.0 0.00 0.01 0.00 88 1025.0
20170325095306 33 88 4.0 7.0 0.00 0.01 0.00 89 1025.1
20170325094801 33 43 2.0 9.0 0.00 0.01 0.00 89 1025.1
20170325094256 33 60 4.0 9.0 0.00 0.01 0.00 89 1025.1
20170325093811 33 51 2.0 8.0 0.00 0.01 0.00 89 1025.1
20170325093310 33 40 1.0 6.0 0.00 0.01 0.00 90 1025.2
20170325092804 33 53 3.0 6.0 0.00 0.01 0.00 90 1025.1
20170325092259 33 71 3.0 6.0 0.00 0.01 0.00 91 1025.2
20170325091814 33 53 0.0 5.0 0.00 0.01 0.00 91 1025.0
20170325091309 33 52 1.0 7.0 0.00 0.01 0.00 91 1024.9
20170325090804 33 85 2.0 7.0 0.00 0.01 0.00 92 1024.7
20170325090300 33 84 4.0 7.0 0.00 0.01 0.00 92 1024.7
20170325085758 33 71 1.0 4.0 0.00 0.01 0.00 92 1024.7
20170325085313 33 70 1.0 3.0 0.00 0.01 0.00 92 1024.9
20170325084808 33 70 0.0 3.0 0.00 0.01 0.00 92 1024.8
20170325084303 33 70 1.0 4.0 0.00 0.01 0.00 92 1024.7
20170325083758 33 69 1.0 5.0 0.00 0.01 0.00 92 1024.6
20170325083313 33 60 1.0 5.0 0.00 0.01 0.00 92 1024.4
20170325082807 33 46 0.0 8.0 0.00 0.01 0.00 93 1024.5
20170325082307 33 59 2.0 8.0 0.00 0.01 0.00 93 1024.4
20170325081802 33 84 2.0 8.0 0.00 0.01 0.00 93 1024.4
20170325081257 33 67 3.0 9.0 0.00 0.01 0.00 93 1024.6
20170325080812 33 64 3.0 9.0 0.00 0.01 0.00 93 1024.6
20170325080307 33 71 2.0 9.0 0.00 0.01 0.00 93 1024.8
20170325075802 33 64 2.0 4.0 0.00 0.01 0.00 93 1024.7
20170325075258 33 62 0.0 4.0 0.00 0.01 0.00 93 1024.7
20170325074756 33 62 0.0 4.0 0.00 0.01 0.00 93 1024.7
20170325074311 33 62 0.0 5.0 0.00 0.01 0.00 93 1024.8
20170325073806 33 64 2.0 5.0 0.00 0.01 0.00 93 1024.7
20170325073300 33 67 3.0 5.0 0.00 0.01 0.00 93 1024.7
20170325072755 33 79 1.0 7.0 0.00 0.01 0.00 93 1024.7
20170325072310 33 98 4.0 7.0 0.00 0.01 0.00 93 1024.6
20170325071806 33 55 2.0 5.0 0.00 0.01 0.00 93 1024.4
20170325071302 33 90 3.0 8.0 0.00 0.01 0.00 93 1024.3
20170325070801 33 84 4.0 8.0 0.00 0.01 0.00 93 1024.1
20170325070316 33 74 2.0 5.0 0.00 0.01 0.00 93 1024.3
20170325065810 33 76 2.0 9.0 0.00 0.02 0.00 92 1024.4
20170325065305 33 96 5.0 9.0 0.00 0.02 0.00 92 1024.3
20170325064802 33 42 4.0 7.0 0.00 0.02 0.00 92 1024.4
20170325064256 33 103 4.0 9.0 0.00 0.02 0.00 92 1024.1
20170325063811 33 78 3.0 10.0 0.00 0.02 0.00 92 1024.1
20170325063311 33 67 2.0 11.0 0.00 0.02 0.00 92 1024.0
20170325062805 33 110 2.0 8.0 0.00 0.02 0.00 92 1024.0
20170325062300 33 78 3.0 7.0 0.00 0.02 0.00 92 1023.9
20170325061755 33 87 2.0 9.0 0.00 0.02 0.00 92 1023.9
20170325061311 33 63 2.0 9.0 0.00 0.02 0.00 91 1024.1
20170325060807 33 84 1.0 5.0 0.00 0.02 0.00 91 1024.0
20170325060303 33 88 0.0 3.0 0.00 0.02 0.00 91 1024.0
20170325055802 33 88 1.0 3.0 0.00 0.04 0.00 91 1024.0
20170325055257 33 88 1.0 5.0 0.00 0.04 0.00 91 1023.9
20170325054813 33 88 0.0 8.0 0.00 0.04 0.00 91 1023.9
20170325054308 33 88 3.0 8.0 0.00 0.04 0.00 90 1023.9
20170325053805 33 54 0.0 3.0 0.00 0.04 0.00 90 1023.9
20170325053300 33 54 1.0 3.0 0.00 0.04 0.00 89 1023.9
20170325052814 34 52 0.0 2.0 0.00 0.04 0.00 89 1024.0
20170325052310 34 52 0.0 3.0 0.00 0.04 0.00 88 1024.0
20170325051810 34 52 2.0 6.0 0.00 0.04 0.00 88 1023.8
20170325051306 34 64 2.0 7.0 0.00 0.04 0.00 87 1023.8
20170325050802 34 79 1.0 7.0 0.00 0.04 0.00 86 1024.0
20170325050317 34 71 3.0 7.0 0.00 0.04 0.00 86 1023.9
20170325045808 34 71 2.0 5.0 0.00 0.05 0.00 85 1023.9
20170325045304 34 69 2.0 5.0 0.00 0.05 0.00 85 1023.8
20170325044759 34 71 2.0 5.0 0.00 0.05 0.00 85 1023.8
20170325044258 34 69 3.0 7.0 0.00 0.05 0.00 85 1023.8
20170325043815 34 76 1.0 5.0 0.00 0.05 0.00 85 1023.9
20170325043309 34 75 2.0 5.0 0.00 0.05 0.00 85 1023.9
20170325042804 34 75 2.0 6.0 0.00 0.05 0.00 85 1024.0
20170325042259 34 56 2.0 6.0 0.00 0.05 0.00 85 1023.9
20170325041755 34 65 0.0 5.0 0.00 0.05 0.00 86 1023.9
20170325041310 34 63 1.0 5.0 0.00 0.05 0.00 86 1024.0
20170325040809 34 19 0.0 6.0 0.00 0.05 0.00 86 1024.0
20170325040305 34 15 2.0 6.0 0.00 0.05 0.00 85 1024.1
20170325035800 34 98 1.0 10.0 0.00 0.08 0.05 85 1024.1
20170325035256 34 114 3.0 7.0 0.00 0.08 0.05 85 1024.0
20170325034812 34 97 1.0 5.0 0.00 0.08 0.05 85 1024.2
20170325034307 34 105 1.0 11.0 0.00 0.08 0.05 85 1024.1
20170325033802 34 82 5.0 11.0 0.00 0.08 0.05 85 1024.2
20170325033302 34 73 2.0 8.0 0.00 0.08 0.05 85 1024.1
20170325032757 34 86 2.0 11.0 0.00 0.08 0.05 86 1024.2
20170325032312 34 97 6.0 11.0 0.00 0.08 0.05 86 1024.1
20170325031808 34 89 4.0 9.0 0.00 0.08 0.05 87 1024.0
20170325031303 34 74 4.0 9.0 0.00 0.08 0.05 87 1023.9
20170325030759 34 97 3.0 7.0 0.00 0.08 0.05 88 1023.9
20170325030314 34 76 1.0 9.0 0.00 0.08 0.05 88 1023.8
20170325025808 34 88 4.0 9.0 0.00 0.10 0.05 89 1023.7
20170325025307 34 67 4.0 9.0 0.00 0.10 0.05 89 1023.6
20170325024802 34 66 3.0 8.0 0.00 0.10 0.05 90 1023.7
20170325024257 34 54 2.0 5.0 0.00 0.10 0.05 90 1023.6
20170325023812 34 28 0.0 5.0 0.00 0.10 0.05 90 1023.7
20170325023307 34 61 2.0 5.0 0.00 0.10 0.05 89 1023.6
20170325022801 34 67 1.0 5.0 0.00 0.10 0.05 89 1023.6
20170325022257 34 57 2.0 4.0 0.00 0.10 0.05 89 1023.5
20170325021757 34 58 1.0 9.0 0.00 0.10 0.05 89 1023.4
20170325021312 34 63 2.0 9.0 0.00 0.10 0.05 89 1023.3
20170325020807 34 67 4.0 8.0 0.00 0.10 0.05 89 1023.2
20170325020302 35 73 3.0 8.0 0.00 0.10 0.05 89 1023.1
20170325015756 35 59 3.0 8.0 0.00 0.10 0.05 89 1023.0
20170325015312 35 62 4.0 8.0 0.00 0.10 0.05 89 1023.0
20170325014807 35 76 2.0 12.0 0.00 0.10 0.05 89 1023.0
20170325014306 35 82 2.0 12.0 0.00 0.10 0.05 89 1022.7
20170325013801 35 87 1.0 8.0 0.00 0.10 0.05 89 1022.6
20170325013257 35 68 3.0 7.0 0.00 0.10 0.05 89 1022.6
20170325012811 35 83 3.0 16.0 0.00 0.10 0.05 89 1022.5
20170325012306 35 97 5.0 16.0 0.00 0.10 0.05 89 1022.6
20170325011801 35 66 4.0 10.0 0.00 0.10 0.05 89 1022.4
20170325011257 35 73 4.0 9.0 0.00 0.10 0.05 89 1022.3
20170325010757 35 101 5.0 11.0 0.00 0.10 0.05 90 1022.2
20170325010312 35 67 4.0 11.0 0.00 0.10 0.05 90 1022.2
20170325005806 35 67 2.0 10.0 0.00 0.13 0.05 90 1022.2
20170325005301 35 86 5.0 10.0 0.00 0.13 0.05 90 1022.1
20170325004756 35 67 1.0 8.0 0.00 0.13 0.05 91 1022.3
20170325004311 35 67 3.0 8.0 0.00 0.13 0.05 90 1022.2
20170325003806 35 67 3.0 8.0 0.00 0.13 0.05 90 1022.3
20170325003302 35 62 2.0 8.0 0.00 0.13 0.05 90 1022.4
20170325002800 35 34 2.0 6.0 0.00 0.13 0.05 90 1022.3
20170325002256 36 69 2.0 4.0 0.00 0.13 0.05 90 1022.2
20170325001811 36 78 0.0 3.0 0.00 0.13 0.05 90 1022.1
20170325001306 36 78 1.0 6.0 0.00 0.13 0.05 90 1022.1
20170325000802 36 74 2.0 6.0 0.00 0.13 0.05 89 1022.1
20170325000257 36 75 2.0 8.0 0.00 0.13 0.05 89 1021.9
20170324235812 36 76 1.0 8.0 0.00 0.15 0.05 89 1021.8
20170324235311 36 116 1.0 8.0 0.00 0.15 0.05 89 1021.4
20170324234806 36 66 2.0 9.0 0.00 0.15 0.05 89 1021.5
20170324234302 36 57 327.0 327.0 0.00 0.14 0.05 89 1020.9
20170324233755 36 62 3.0 7.0 0.00 0.15 0.05 89 1020.9
20170324233310 36 76 2.0 12.0 0.00 0.15 0.05 89 1020.8
20170324232805 36 60 3.0 12.0 0.00 0.15 0.05 89 1020.8
20170324232300 36 68 5.0 9.0 0.00 0.15 0.05 88 1020.7
20170324231801 36 59 1.0 6.0 0.00 0.15 0.05 89 1020.5
20170324231256 36 63 2.0 8.0 0.00 0.15 0.05 89 1020.7
20170324230811 36 83 3.0 8.0 0.00 0.15 0.05 89 1020.6
20170324230306 36 74 3.0 8.0 0.00 0.15 0.05 89 1020.4
20170324225255 37 69 2.0 7.0 0.00 0.17 0.05 88 1020.1
20170324224811 37 90 1.0 8.0 0.00 0.17 0.05 88 1019.9
20170324224307 37 92 3.0 8.0 0.00 0.17 0.05 88 1019.9
20170324223806 37 78 3.0 9.0 0.00 0.17 0.05 88 1019.7
20170324223303 37 76 4.0 9.0 0.00 0.17 0.05 88 1019.6
20170324222756 37 88 0.0 8.0 0.00 0.17 0.05 88 1019.5
20170324222312 37 84 3.0 10.0 0.00 0.17 0.05 88 1019.5
20170324221806 37 74 4.0 10.0 0.00 0.17 0.05 88 1019.6
20170324221302 37 90 2.0 7.0 0.00 0.17 0.05 88 1019.5
20170324220758 37 80 2.0 5.0 0.00 0.17 0.05 88 1019.7
20170324220258 37 80 2.0 5.0 0.00 0.17 0.05 88 1019.7
20170324215812 37 62 1.0 5.0 0.00 0.17 0.05 87 1019.7
20170324215308 38 54 2.0 5.0 0.00 0.17 0.05 87 1019.6
20170324214804 38 56 1.0 3.0 0.00 0.17 0.05 87 1019.5
20170324214258 38 58 0.0 4.0 0.00 0.17 0.05 87 1019.5
20170324213814 38 57 2.0 4.0 0.00 0.17 0.05 86 1019.5
20170324213308 38 51 1.0 4.0 0.00 0.17 0.05 86 1019.5
20170324212807 38 24 0.0 3.0 0.00 0.17 0.05 86 1019.5
20170324212303 38 24 0.0 3.0 0.00 0.17 0.05 86 1019.4
20170324211757 38 15 1.0 3.0 0.00 0.17 0.05 86 1019.2
20170324211313 38 19 0.0 4.0 0.00 0.17 0.05 86 1019.0
20170324210310 39 50 0.0 2.0 0.00 0.17 0.05 86 1019.0
20170324205805 39 50 0.0 3.0 0.00 0.17 0.05 86 1018.7
20170324205305 39 67 1.0 3.0 0.00 0.17 0.05 85 1018.6
20170324204800 39 56 0.0 4.0 0.00 0.17 0.05 86 1018.3
20170324204255 39 56 2.0 4.0 0.00 0.17 0.05 85 1018.2
20170324203849 39 67 0.0 4.0 0.00 0.17 0.05 86 1018.2
20170324203300 39 28 2.0 4.0 0.00 0.17 0.05 85 1018.0
20170324202754 39 13 1.0 3.0 0.00 0.17 0.05 86 1018.0
20170324202310 39 12 1.0 3.0 0.00 0.17 0.05 86 1018.0
20170324201806 39 10 1.0 3.0 0.00 0.17 0.05 86 1017.7
20170324201300 39 5 0.0 2.0 0.00 0.17 0.05 86 1017.7
20170324200759 38 5 0.0 1.0 0.00 0.17 0.05 87 1017.8
20170324200314 38 5 0.0 1.0 0.00 0.17 0.05 86 1017.7
20170324195809 38 5 0.0 1.0 0.00 0.17 0.05 86 1017.8
20170324195305 38 5 0.0 1.0 0.00 0.17 0.05 86 1017.8
20170324194800 39 5 0.0 2.0 0.00 0.17 0.05 86 1017.9
20170324194255 39 5 0.0 2.0 0.00 0.17 0.05 86 1017.9
20170324193811 39 5 0.0 1.0 0.00 0.17 0.05 87 1017.8
20170324193311 39 5 0.0 2.0 0.00 0.17 0.05 87 1017.7
20170324192806 39 5 0.0 2.0 0.00 0.17 0.05 86 1017.5
20170324192302 39 5 0.0 1.0 0.00 0.17 0.05 87 1017.5
20170324191757 38 5 0.0 1.0 0.00 0.17 0.05 87 1017.4
20170324191313 38 5 0.0 2.0 0.00 0.17 0.05 86 1017.3
20170324190304 38 5 0.0 3.0 0.00 0.17 0.05 85 1017.2
20170324185803 39 5 2.0 3.0 0.00 0.17 0.05 85 1017.2
20170324185259 39 5 1.0 3.0 0.00 0.17 0.05 85 1017.4
20170324184754 39 360 0.0 3.0 0.00 0.17 0.05 86 1017.3
20170324184309 39 11 2.0 3.0 0.00 0.17 0.05 86 1017.1
20170324183804 39 38 1.0 4.0 0.00 0.17 0.05 86 1017.0
20170324183300 39 25 2.0 4.0 0.00 0.17 0.05 87 1017.0
20170324182754 39 355 2.0 4.0 0.00 0.17 0.05 87 1017.0
20170324182309 39 346 2.0 4.0 0.00 0.17 0.05 88 1017.0
20170324181809 38 54 1.0 3.0 0.00 0.17 0.05 91 1016.8
20170324181304 37 39 1.0 6.0 0.00 0.17 0.05 92 1016.8
20170324180759 37 88 3.0 6.0 0.00 0.17 0.05 93 1016.8
20170324180314 36 302 0.0 2.0 0.00 0.17 0.05 92 1016.7
20170324175808 36 303 1.0 2.0 0.00 0.17 0.05 92 1016.7
20170324175344 36 304 1.0 3.0 0.00 0.17 0.05 92 1016.9
20170324174754 37 304 1.0 4.0 0.00 0.17 0.05 91 1016.9
20170324174309 37 315 2.0 4.0 0.00 0.17 0.05 91 1016.9
20170324173808 37 336 1.0 2.0 0.00 0.17 0.05 92 1016.8
20170324173303 37 332 0.0 2.0 0.00 0.17 0.05 92 1016.6
20170324172258 37 331 1.0 2.0 0.00 0.17 0.05 93 1016.4
20170324171813 37 350 0.0 2.0 0.00 0.17 0.05 93 1016.4
20170324171308 37 346 0.0 2.0 0.00 0.17 0.05 93 1016.3
20170324170803 37 325 0.0 2.0 0.00 0.17 0.05 94 1016.2
20170324170302 37 324 0.0 3.0 0.00 0.17 0.05 94 1016.2
20170324165756 37 321 0.0 3.0 0.00 0.17 0.05 94 1016.1
20170324165311 37 360 0.0 3.0 0.00 0.17 0.05 94 1016.1
20170324164806 36 346 0.0 3.0 0.00 0.17 0.05 94 1016.0
20170324164302 36 338 0.0 2.0 0.00 0.17 0.05 94 1015.9
20170324163758 36 342 0.0 2.0 0.00 0.17 0.05 95 1015.9
20170324163313 36 336 0.0 1.0 0.00 0.17 0.05 95 1015.9
20170324162308 36 343 0.0 1.0 0.00 0.17 0.05 95 1015.7
20170324161844 36 344 0.0 1.0 0.00 0.17 0.05 95 1015.6
20170324161254 36 343 0.0 1.0 0.00 0.17 0.05 95 1015.5
20170324160810 36 344 0.0 1.0 0.00 0.17 0.05 95 1015.4
20170324160306 36 344 0.0 1.0 0.00 0.17 0.05 95 1015.3
20170324155759 36 344 0.0 3.0 0.00 0.17 0.05 95 1015.1
20170324155254 36 344 0.0 3.0 0.00 0.17 0.05 95 1015.0
20170324154809 36 334 0.0 1.0 0.00 0.17 0.05 95 1014.9
20170324154310 36 334 0.0 1.0 0.00 0.17 0.05 95 1014.8
20170324153805 36 334 0.0 0.0 0.00 0.17 0.05 96 1014.7
20170324153300 35 334 0.0 0.0 0.00 0.17 0.05 96 1014.5
20170324152755 35 334 0.0 0.0 0.00 0.17 0.05 95 1014.5
20170324152310 35 334 0.0 4.0 0.00 0.17 0.05 95 1014.5
20170324151805 35 334 1.0 4.0 0.00 0.17 0.05 96 1014.4
20170324151341 35 290 0.0 0.0 0.00 0.17 0.05 96 1014.4
20170324150812 35 290 0.0 0.0 0.00 0.17 0.05 96 1014.3
20170324150308 35 290 0.0 0.0 0.00 0.17 0.05 96 1014.2
20170324145807 35 290 0.0 3.0 0.00 0.17 0.05 96 1014.0
20170324145303 35 290 2.0 3.0 0.00 0.17 0.05 96 1013.9
20170324144758 35 252 0.0 1.0 0.00 0.17 0.05 96 1013.8
20170324144254 35 252 0.0 1.0 0.00 0.17 0.05 96 1013.6
20170324143810 35 250 0.0 1.0 0.00 0.17 0.05 96 1013.4
20170324143306 35 251 0.0 2.0 0.00 0.17 0.05 96 1013.2
20170324142801 35 261 0.0 2.0 0.00 0.17 0.05 96 1013.2
20170324142300 34 261 1.0 2.0 0.00 0.17 0.05 96 1013.2
20170324141755 34 261 0.0 2.0 0.00 0.17 0.05 96 1013.2
20170324141310 34 237 0.0 1.0 0.00 0.17 0.05 96 1013.3
20170324140806 34 237 0.0 1.0 0.00 0.17 0.05 96 1013.2
20170324140302 34 237 0.0 0.0 0.01 0.17 0.05 96 1013.2
20170324135757 34 237 0.0 0.0 0.01 0.17 0.05 96 1013.1
20170324135313 34 237 0.0 0.0 0.01 0.17 0.05 96 1012.9
20170324134812 34 237 0.0 0.0 0.01 0.17 0.05 96 1012.7
20170324134307 34 237 0.0 1.0 0.01 0.17 0.05 96 1012.6
20170324133803 34 237 0.0 1.0 0.01 0.17 0.05 96 1012.4
20170324133258 33 237 0.0 0.0 0.01 0.17 0.05 96 1012.5